Terminal Aerodrome Forecast
Issued by NWS

Home | Current Version | Previous Version | Text Only | Print | Product List | Glossary On
Versions: 1 2 3 4 5 6 7 8 9 10 11 12 13 14 15 16 17 18 19 20 21 22 23 24 25 26 27 28 29
000
FTUS44 KJAN 050500
TAFHKS
TAF
KHKS 050523Z 0506/0606 34010KT P6SM VCSH OVC006
     FM050800 35015G20KT 5SM -RA BR OVC007
     FM051300 36020G26KT 4SM -FZRA BR BKN007 OVC015
     FM051800 36018G22KT 6SM -FZRA BR OVC007
     FM052100 35018KT P6SM OVC015=

USA.gov is the U.S. government's official web portal to all federal, state and local government web resources and services.